CW4482 Weather Reports


Display with metric or nautical units.
time (UTC)temp
F
wind
direction
speed
MPH
gust
MPH
rain 1hr
in
rain 24hr
in
rain mn
in
humidity
%
barometer
mb
20260901174525 84 360 3.0 6.0 0.00 0.00 0.00 75 1014.7
20260901173028 84 360 1.0 2.0 0.00 0.00 0.00 79 1015.1
20260901171516 84 360 0.0 0.0 0.00 0.00 0.00 80 1015.4
20260901170020 84 360 0.0 3.0 0.00 0.00 0.00 78 1015.6
20260901164527 84 355 0.0 3.0 0.00 0.00 0.00 76 1015.6
20260901163026 85 360 0.0 3.0 0.00 0.00 0.00 77 1015.5
20260901161515 85 360 1.0 5.0 0.00 0.00 0.00 76 1015.6
20260901160019 86 360 2.0 5.0 0.00 0.00 0.00 74 1015.6
20260901154526 86 360 2.0 10.0 0.00 0.00 0.00 71 1015.3
20260901153011 86 360 1.0 8.0 0.00 0.00 0.00 75 1015.2
20260901151537 85 360 2.0 6.0 0.00 0.00 0.00 76 1015.3
20260901150021 84 360 3.0 8.0 0.00 0.00 0.00 76 1015.2
20260901144550 84 360 2.0 5.0 0.00 0.00 0.00 78 1015.4
20260901143032 83 360 3.0 8.0 0.00 0.00 0.00 80 1015.5
20260901141515 82 360 2.0 6.0 0.00 0.00 0.00 81 1015.4
20260901140012 81 360 2.0 4.0 0.00 0.00 0.00 82 1015.4
20260901134515 81 360 0.0 5.0 0.00 0.00 0.00 84 1015.5
20260901133018 80 4 1.0 3.0 0.00 0.00 0.00 86 1015.6
20260901131542 79 360 0.0 4.0 0.00 0.00 0.00 86 1015.3
20260901130044 79 360 0.0 3.0 0.00 0.00 0.00 88 1015.2
20260901124511 78 360 1.0 3.0 0.00 0.00 0.00 88 1015.0
20260901123016 78 360 0.0 3.0 0.00 0.00 0.00 89 1014.8
20260901121522 78 360 1.0 4.0 0.00 0.00 0.00 88 1014.6
20260901120025 78 355 0.0 2.0 0.00 0.00 0.00 88 1014.5
20260901114512 78 360 1.0 3.0 0.00 0.00 0.00 88 1014.5
20260901113016 78 355 0.0 1.0 0.00 0.00 0.00 88 1014.4
20260901111523 78 360 0.0 2.0 0.00 0.00 0.00 88 1014.4
20260901110020 78 360 0.0 2.0 0.00 0.00 0.00 88 1014.3
20260901104528 78 360 0.0 1.0 0.00 0.00 0.00 88 1014.3
20260901103029 78 360 0.0 0.0 0.00 0.00 0.00 88 1014.2
20260901101518 78 360 0.0 0.0 0.00 0.00 0.00 88 1014.2
20260901100020 78 360 0.0 0.0 0.00 0.00 0.00 88 1014.2
20260901094526 78 360 0.0 0.0 0.00 0.00 0.00 88 1014.3
20260901093028 78 360 0.0 0.0 0.00 0.00 0.00 87 1014.4
20260901091516 79 360 0.0 0.0 0.00 0.00 0.00 88 1014.4
20260901090020 79 360 0.0 0.0 0.00 0.00 0.00 87 1014.5
20260901084528 79 360 0.0 0.0 0.00 0.00 0.00 87 1014.6
20260901083011 79 360 0.0 0.0 0.00 0.00 0.00 86 1014.5
20260901081520 79 360 0.0 0.0 0.00 0.00 0.00 86 1014.5
20260901080025 79 360 0.0 0.0 0.00 0.00 0.00 86 1014.4
20260901074513 80 360 0.0 0.0 0.00 0.00 0.00 86 1014.5
20260901073034 80 360 0.0 0.0 0.00 0.00 0.00 86 1014.4
20260901071517 80 360 0.0 0.0 0.00 0.00 0.00 86 1014.6
20260901070021 80 360 0.0 0.0 0.00 0.00 0.00 86 1014.8
20260901064527 81 360 0.0 0.0 0.00 0.00 0.00 86 1014.7
20260901063011 81 360 0.0 0.0 0.00 0.00 0.00 86 1014.8
20260901061516 81 360 0.0 0.0 0.00 0.00 0.00 85 1014.9
20260901060022 81 360 0.0 0.0 0.00 0.00 0.00 85 1015.0
20260901054527 81 360 0.0 0.0 0.00 0.00 0.00 84 1014.8
20260901053011 82 360 0.0 0.0 0.00 0.00 0.00 85 1014.8
20260901051516 82 360 0.0 0.0 0.00 0.00 0.00 85 1014.7
20260901050021 82 360 0.0 0.0 0.00 0.00 0.00 84 1014.7
20260901044524 82 360 0.0 0.0 0.00 0.00 0.00 84 1014.7
20260901043029 82 360 0.0 0.0 0.00 0.00 0.00 83 1014.7
20260901041514 82 360 0.0 0.0 0.00 0.00 0.00 83 1014.6
20260901040021 82 360 0.0 3.0 0.00 0.00 0.00 83 1014.7
20260901034544 82 360 0.0 2.0 0.00 0.00 0.00 82 1014.6
20260901033028 82 360 0.0 0.0 0.00 0.00 0.00 83 1014.6
20260901031517 82 360 0.0 1.0 0.00 0.00 0.00 83 1014.5
20260901030022 82 360 0.0 0.0 0.00 0.00 0.00 82 1014.3
20260901024526 82 360 0.0 0.0 0.00 0.00 0.00 82 1013.9
20260901023011 82 360 0.0 0.0 0.00 0.00 0.00 81 1013.5
20260901021539 82 360 0.0 0.0 0.00 0.00 0.00 80 1013.4
20260901020039 83 360 0.0 0.0 0.00 0.00 0.00 79 1013.5
20260901014527 83 360 0.0 0.0 0.00 0.00 0.00 79 1013.2
20260901013050 84 360 0.0 0.0 0.00 0.00 0.00 78 1013.1
20260901011514 85 360 0.0 0.0 0.00 0.00 0.00 77 1013.0
20260901010021 85 360 0.0 0.0 0.00 0.00 0.00 76 1013.1
20260901004545 86 360 0.0 4.0 0.00 0.00 0.00 74 1013.2
20260901003029 87 360 1.0 5.0 0.00 0.00 0.00 73 1013.3
20260901001514 87 360 1.0 4.0 0.00 0.00 0.00 73 1013.3
20260901000021 88 360 0.0 4.0 0.00 0.00 0.00 71 1013.2
20260831234545 88 360 2.0 5.0 0.00 0.00 0.00 70 1013.2
20260831233010 89 360 2.0 8.0 0.00 0.00 0.00 70 1013.2
20260831231515 89 360 1.0 5.0 0.00 0.00 0.00 69 1013.2
20260831230024 90 360 1.0 6.0 0.00 0.00 0.00 68 1013.3
20260831224546 90 360 2.0 8.0 0.00 0.00 0.00 67 1013.3
20260831223025 90 360 3.0 6.0 0.00 0.00 0.00 68 1013.3
20260831221515 90 360 3.0 6.0 0.00 0.00 0.00 65 1013.3
20260831220040 90 360 1.0 6.0 0.00 0.00 0.00 67 1013.4
20260831214527 90 360 1.0 6.0 0.00 0.00 0.00 70 1013.4
20260831213012 91 360 2.0 6.0 0.00 0.00 0.00 67 1013.8
20260831211520 91 360 3.0 9.0 0.00 0.00 0.00 63 1013.9
20260831210025 93 360 2.0 10.0 0.00 0.00 0.00 58 1014.1
20260831204535 94 360 6.0 10.0 0.00 0.00 0.00 62 1014.2
20260831203039 93 360 5.0 11.0 0.00 0.00 0.00 61 1014.3
20260831201543 93 360 2.0 5.0 0.00 0.00 0.00 63 1014.4
20260831200009 92 360 0.0 3.0 0.00 0.00 0.00 60 1014.6
20260831194533 92 360 2.0 4.0 0.00 0.00 0.00 68 1014.6
20260831193019 93 360 1.0 6.0 0.00 0.00 0.00 70 1015.0
20260831191522 94 360 1.0 4.0 0.00 0.00 0.00 60 1015.0
20260831190031 95 360 3.0 5.0 0.00 0.00 0.00 57 1015.2
20260831184535 97 360 2.0 5.0 0.00 0.00 0.00 55 1015.3
20260831183020 96 360 2.0 9.0 0.00 0.00 0.00 58 1015.3
20260831181524 96 360 1.0 5.0 0.00 0.00 0.00 55 1015.6
20260831180013 95 360 3.0 6.0 0.00 0.00 0.00 57 1015.8